This is the latest recevied weather packets stored in our database for station/object N3WMC. If no packets are shown the sender has not sent any weather packets the latest 10 day(s).
| Time | Temp. | Humidity | Pressure | Rain* | Wind** | Luminosity | Snow |
|---|---|---|---|---|---|---|---|
| 1787844315 | 25° C | 75% | 1016.4 hPa | 0 mm | - | 525 W/m² | - |
| 1787844014 | 25° C | 76% | 1016.3 hPa | 0 mm | - | 504 W/m² | - |
| 1787843709 | 24.44° C | 76% | 1016.3 hPa | 0 mm | - | 513 W/m² | - |
| 1787843404 | 24.44° C | 76% | 1016.3 hPa | 0 mm | - | 504 W/m² | - |
| 1787843101 | 25° C | 75% | 1016.1 hPa | 0 mm | - | 504 W/m² | - |
| 1787842800 | 25° C | 76% | 1016.1 hPa | 0 mm | - | 495 W/m² | - |
| 1787842496 | 24.44° C | 79% | 1016 hPa | 0 mm | - | 492 W/m² | - |
| 1787842195 | 23.89° C | 80% | 1016 hPa | 0 mm | - | 272 W/m² | - |
| 1787841895 | 23.33° C | 81% | 1015.9 hPa | 0 mm | - | 511 W/m² | - |
| 1787841591 | 23.33° C | 80% | 1016.5 hPa | 0 mm | - | 154 W/m² | - |
| 1787841290 | 23.89° C | 79% | 1016.1 hPa | 0 mm | - | 171 W/m² | - |
| 1787840985 | 23.89° C | 80% | 1016 hPa | 0 mm | - | 226 W/m² | - |
| 1787840681 | 24.44° C | 80% | 1016.3 hPa | 0 mm | - | 313 W/m² | - |
| 1787840370 | 23.33° C | 81% | 1016.4 hPa | 0 mm | - | 484 W/m² | - |
| 1787840066 | 23.33° C | 81% | 1016.4 hPa | 0 mm | - | 200 W/m² | - |
| 1787839761 | 24.44° C | 79% | 1016.1 hPa | 0 mm | - | 288 W/m² | - |
| 1787839455 | 23.33° C | 79% | 1016.1 hPa | 0 mm | - | 421 W/m² | - |
| 1787839154 | 23.33° C | 81% | 1016.4 hPa | 0 mm | - | 422 W/m² | - |
| 1787838853 | 23.33° C | 81% | 1015.9 hPa | 0 mm | - | 375 W/m² | - |
| 1787838548 | 23.33° C | 81% | 1016.3 hPa | 0 mm | - | 366 W/m² | - |
| 1787838247 | 23.33° C | 82% | 1016.1 hPa | 0 mm | - | 347 W/m² | - |
| 1787837946 | 22.78° C | 84% | 1016.1 hPa | 0 mm | - | 335 W/m² | - |
| 1787837645 | 22.78° C | 84% | 1016.1 hPa | 0 mm | - | 323 W/m² | - |
| 1787837340 | 22.22° C | 83% | 1016 hPa | 0 mm | - | 306 W/m² | - |
| 1787837036 | 22.22° C | 85% | 1016.1 hPa | 0 mm | - | 296 W/m² | - |
* Rain latest hour (hover to see other rain measurements)
** Current wind speed in m/s (hover to see current wind gust speed)